Weather reports worldwide

Advertisment
Goteborg/Landvetter, Sweden (2526): temperature & dewpoint: 09.12.2019 00:00:00 - 15.12.2019 00:00:00 (CET)Goteborg/Landvetter, Sweden (2526): wind speed: 09.12.2019 00:00:00 - 15.12.2019 00:00:00 (CET)Goteborg/Landvetter, Sweden (2526): wind direction: 09.12.2019 00:00:00 - 15.12.2019 00:00:00 (CET)Goteborg/Landvetter, Sweden (2526): reduced air pressure: 09.12.2019 00:00:00 - 15.12.2019 00:00:00 (CET)Goteborg/Landvetter, Sweden (2526): visibility: 09.12.2019 00:00:00 - 15.12.2019 00:00:00 (CET)
Date & Time tt [°C] td [°C] ff [km/h] ff [kn] dd ppp [hPa] vv [km]
15.12.2019 00:00:00 3,1 2,3 11 6 SSE 982,5 9
14.12.2019 23:00:00 2,7 1,8 14 8 SSE 982,0 3,8
14.12.2019 22:00:00 1,5 0,6 11 6 ESE 981,7 3,9
14.12.2019 21:00:00 1,4 0,5 14 8 SE 981,6 9
14.12.2019 20:00:00 1,5 0,6 14 8 ESE 981,5 12
14.12.2019 19:00:00 1,1 0,2 14 8 SE 981,4 3,2
14.12.2019 18:00:00 1,0 0,1 14 8 SE 981,4 4,7
14.12.2019 17:00:00 1,2 0,3 14 8 SE 981,4 4,5
14.12.2019 16:00:00 1,4 0,2 14 8 SE 981,4 7
14.12.2019 15:00:00 1,8 0,6 11 6 SE 981,1 8
14.12.2019 14:00:00 1,9 0,7 11 6 SE 981,0 11
14.12.2019 13:00:00 1,8 0,6 11 6 SE 981,1 12
14.12.2019 12:00:00 1,7 0,2 14 8 SE 981,3 11
14.12.2019 11:00:00 1,5 0,3 11 6 ESE 981,5 11
14.12.2019 10:00:00 1,3 0,1 14 8 ESE 981,9 9
14.12.2019 09:00:00 1,0 0,0 11 6 ESE 981,8 10
14.12.2019 08:00:00 1,3 0,1 14 8 SSE 981,7 12
14.12.2019 07:00:00 1,6 0,7 14 8 SSE 981,6 24
14.12.2019 06:00:00 1,6 0,4 14 8 ESE 981,8 50
14.12.2019 05:00:00 1,8 0,6 14 8 ESE 982,1 45
14.12.2019 04:00:00 2,2 1,3 14 8 E 982,6 8
14.12.2019 03:00:00 2,2 1,3 11 6 ESE 983,0 11
14.12.2019 02:00:00 2,2 1,3 7 4 E 983,7 10
14.12.2019 01:00:00 2,2 1,3 11 6 E 984,2 9
14.12.2019 00:00:00 2,2 1,3 7 4 E 984,8 3,0
13.12.2019 23:00:00 2,2 1,3 7 4 E 985,4 2,9
13.12.2019 22:00:00 2,2 1,3 11 6 ESE 985,9 12
13.12.2019 21:00:00 2,0 1,1 11 6 E 986,4 21
13.12.2019 20:00:00 1,9 0,7 14 8 E 986,8 16
13.12.2019 19:00:00 1,8 0,6 14 8 E 987,0 30
13.12.2019 18:00:00 2,1 0,6 18 10 E 987,3 21
13.12.2019 17:00:00 2,2 0,7 14 8 E 987,6 35
13.12.2019 16:00:00 1,9 0,4 14 8 E 988,2 14
13.12.2019 15:00:00 2,1 0,2 14 8 E 988,5 50
13.12.2019 14:00:00 2,1 0,6 14 8 ESE 988,6 35
13.12.2019 13:00:00 2,3 0,8 14 8 ESE 988,8 6
13.12.2019 12:00:00 2,5 1,0 14 8 ESE 988,9 13
13.12.2019 11:00:00 2,3 0,8 18 10 ESE 989,5 40
13.12.2019 10:00:00 2,1 0,9 18 10 ESE 989,9 25
13.12.2019 09:00:00 1,8 0,6 14 8 ESE 990,0 14
13.12.2019 08:00:00 1,5 0,0 14 8 ESE 990,2 19
13.12.2019 07:00:00 1,3 0,1 14 8 ESE 990,3 12
13.12.2019 06:00:00 1,7 0,5 14 8 SE 990,6 11
13.12.2019 05:00:00 2,0 0,8 18 10 SSE 991,1 11
13.12.2019 04:00:00 2,1 1,2 14 8 SE 991,5 4,4
13.12.2019 03:00:00 1,8 0,6 22 12 S 991,8 50
13.12.2019 02:00:00 2,1 0,9 11 6 SSE 992,3 8
13.12.2019 01:00:00 2,1 0,9 14 8 SSE 992,2 50
13.12.2019 00:00:00 2,4 1,5 18 10 SSE 992,7 15
12.12.2019 23:00:00 2,2 1,3 14 8 S 992,8 12
12.12.2019 22:00:00 2,8 1,9 14 8 S 992,9 15
12.12.2019 21:00:00 3,0 2,1 14 8 S 992,9 13
12.12.2019 20:00:00 2,9 1,7 14 8 SSE 993,0 10
12.12.2019 19:00:00 2,6 1,4 29 16 S 993,1 12
12.12.2019 18:00:00 2,8 1,6 18 10 SSE 993,4 11
12.12.2019 17:00:00 2,2 1,3 18 10 SSE 994,1 8
12.12.2019 16:00:00 1,9 0,7 14 8 S 994,5 15
12.12.2019 15:00:00 2,7 1,5 14 8 S 994,6 23
12.12.2019 14:00:00 2,6 1,4 18 10 S 995,2 4,9
12.12.2019 13:00:00 3,2 2,0 14 8 SSE 995,5 7
12.12.2019 12:00:00 3,4 2,2 14 8 SSE 996,0 23
12.12.2019 11:00:00 3,3 2,1 14 8 SSE 996,9 50
12.12.2019 10:00:00 3,3 2,1 14 8 SSE 997,5 40
12.12.2019 09:00:00 3,3 2,4 14 8 SSE 997,7 12
12.12.2019 08:00:00 3,4 2,5 11 6 SSE 998,0 9
12.12.2019 07:00:00 3,6 2,7 11 6 SSE 998,2 7
12.12.2019 06:00:00 3,7 2,8 7 4 SE 998,6 7
12.12.2019 05:00:00 3,9 3,0 11 6 S 998,9 10
12.12.2019 04:00:00 3,8 2,9 11 6 SSE 999,4 8
12.12.2019 03:00:00 4,0 3,1 11 6 SSE 1000,0 9
12.12.2019 02:00:00 4,1 2,9 11 6 S 1000,5 12
12.12.2019 01:00:00 4,2 3,0 11 6 S 1000,9 12
12.12.2019 00:00:00 4,1 3,2 14 8 S 1001,3 13
11.12.2019 23:00:00 4,2 3,0 11 6 S 1001,4 11
11.12.2019 22:00:00 4,4 3,2 18 10 S 1002,0 12
11.12.2019 21:00:00 4,6 3,4 22 12 SSW 1002,0 12
11.12.2019 20:00:00 4,9 3,7 14 8 SSW 1002,2 12
11.12.2019 19:00:00 4,9 3,7 22 12 SSW 1002,4 13
11.12.2019 18:00:00 5,0 3,8 18 10 SSW 1002,5 13
11.12.2019 17:00:00 4,7 3,5 18 10 SSW 1002,6 14
11.12.2019 16:00:00 4,8 3,6 22 12 SSW 1002,5 14
11.12.2019 15:00:00 5,0 4,0 22 12 SSW 1002,4 13
11.12.2019 14:00:00 5,2 4,0 22 12 SSW 1002,1 13
11.12.2019 13:00:00 5,5 4,3 22 12 SW 1002,3 16
11.12.2019 12:00:00 5,4 4,4 22 12 SSW 1002,2 15
11.12.2019 11:00:00 5,4 4,5 25 14 SW 1002,3 15
11.12.2019 10:00:00 5,2 4,3 25 14 SSW 1001,6 13
11.12.2019 09:00:00 4,9 4,0 32 18 SSW 1001,1 14
11.12.2019 08:00:00 4,5 3,6 36 19 SSW 1000,5 8
11.12.2019 07:00:00 4,1 2,9 47 25 SSW 1000,0 5
11.12.2019 06:00:00 3,0 1,8 40 21 S 999,8 3,6
11.12.2019 05:00:00 2,5 1,3 43 23 S 999,9 6
11.12.2019 04:00:00 2,7 1,5 43 23 S 1000,4 2,5
11.12.2019 03:00:00 2,4 1,2 43 23 S 1001,6 3,6
11.12.2019 02:00:00 2,0 0,8 40 21 S 1002,5 2,0
11.12.2019 01:00:00 1,8 0,0 40 21 S 1003,3 10
11.12.2019 00:00:00 3,0 -0,5 43 23 S 1004,5 11
10.12.2019 23:00:00 2,8 -0,7 43 23 S 1006,1 45
10.12.2019 22:00:00 2,6 0,0 40 21 S 1007,0 30
10.12.2019 21:00:00 2,0 0,2 32 18 S 1008,6 29
10.12.2019 20:00:00 1,4 -0,1 29 16 SSE 1010,2 30
10.12.2019 19:00:00 0,7 -0,5 22 12 SSE 1011,6 28
10.12.2019 18:00:00 0,5 -1,3 22 12 SSE 1012,8 50
10.12.2019 17:00:00 0,1 -2,1 18 10 SSE 1013,8 50
10.12.2019 16:00:00 -0,2 -2,7 22 12 SSE 1014,9 50
10.12.2019 15:00:00 -0,5 -3,9 18 10 SSE 1015,7 50
10.12.2019 14:00:00 -0,6 -4,3 14 8 SSE 1016,5 50
10.12.2019 13:00:00 -1,2 -4,5 14 8 SSE 1016,8 50
10.12.2019 12:00:00 -1,1 -5,1 11 6 SSE 1017,3 50
10.12.2019 11:00:00 -1,7 -5,0 7 4 SSE 1017,1 50
10.12.2019 10:00:00 -3,5 -6,0 4 2 SSW 1017,0 50
10.12.2019 09:00:00 -4,4 -5,6 4 2 SW 1016,5 50
10.12.2019 08:00:00 -4,7 -6,4 7 4 WSW 1016,2 50
10.12.2019 07:00:00 -3,6 -6,2 4 2 W 1014,8 50
10.12.2019 06:00:00 -3,9 -5,7 4 2 WNW 1013,7 50
10.12.2019 05:00:00 -3,6 -5,9 7 4 NW 1012,7 50
10.12.2019 04:00:00 -3,6 -5,4 7 4 NW 1011,5 50
10.12.2019 03:00:00 -2,9 -5,5 11 6 N 1010,0 50
10.12.2019 02:00:00 -2,5 -5,0 14 8 NNW 1008,6 50
10.12.2019 01:00:00 -2,1 -4,4 18 10 NNW 1006,8 50
10.12.2019 00:00:00 -1,5 -4,0 22 12 NNW 1004,4 50
09.12.2019 23:00:00 -1,2 -3,7 22 12 NNW 1001,9 50
09.12.2019 22:00:00 -0,9 -2,6 29 16 NNW 999,6 50
09.12.2019 21:00:00 -0,7 -1,5 29 16 NNW 997,0 3,7
09.12.2019 20:00:00 -0,5 -1,3 25 14 NNW 994,1 5
09.12.2019 19:00:00 0,1 -1,0 29 16 N 990,9 3,8
09.12.2019 18:00:00 3,8 2,9 11 6 WSW 987,0 25
09.12.2019 17:00:00 3,7 2,2 11 6 SW 985,8 10
09.12.2019 16:00:00 4,7 1,4 25 14 SW 984,6 14
09.12.2019 15:00:00 5,0 3,0 32 18 SSW 984,1 22
09.12.2019 14:00:00 5,0 3,0 32 18 SSW 984,1 22
09.12.2019 13:00:00 4,6 3,4 29 16 SW 983,8 29
09.12.2019 12:00:00 4,7 3,2 36 19 SW 983,6 30
09.12.2019 11:00:00 5,0 2,9 36 19 SW 983,5 35
09.12.2019 10:00:00 4,9 2,4 36 19 SW 983,7 29
09.12.2019 09:00:00 4,8 2,8 36 19 SW 983,5 17
09.12.2019 08:00:00 4,9 2,8 36 19 SW 983,1 25
09.12.2019 07:00:00 4,8 2,7 32 18 SW 982,7 25
09.12.2019 06:00:00 4,7 2,6 32 18 SW 982,5 27
09.12.2019 05:00:00 4,9 2,9 32 18 SW 982,1 24
09.12.2019 04:00:00 4,5 2,8 29 16 SW 981,8 21
09.12.2019 03:00:00 4,3 2,3 29 16 SW 981,6 50
09.12.2019 02:00:00 4,6 3,1 32 18 SW 981,5 21
09.12.2019 01:00:00 4,7 2,7 32 18 SW 981,4 21
09.12.2019 00:00:00 4,8 2,7 29 16 SW 981,2 25

tt = temperature
td = dewpoint
ff = wind speed
dd = wind direction
ppp = reduced air pressure
vv = visibility

Next stations